Simultaneous Nadir Overpasses (SNOs) Predictions

Prediction of SNOs between GOES-16 and LANDSAT-8 Satellite Orbit:

Table of predicted SNOs for the next 14.0 days since TLE Epoch: 9/5/2020
Index Date Time (GOES-16) GOES-16 Lat,Lon LANDSAT-8 Lat,Lon Distance(km) Time Diff (sec)
1 09/05/2020 02:57:36 -0.01, -75.17 0.72, -71.71 393.17 80
2 09/05/2020 15:21:32 0.02, -75.18 0.36, -76.87 191.69 80
3 09/07/2020 15:06:41 0.01, -75.17 -0.23, -73.91 142.83 80
4 09/08/2020 03:30:46 -0.02, -75.15 -0.84, -79.11 449.51 80
5 09/09/2020 14:54:31 0.02, -75.16 -0.89, -70.96 477.61 80
6 09/10/2020 03:18:35 -0.02, -75.14 -0.24, -76.14 114.63 80
7 09/12/2020 03:03:44 -0.03, -75.13 0.36, -73.18 220.46 80
8 09/12/2020 15:27:40 0.03, -75.14 0.72, -78.34 364.24 80
9 09/14/2020 15:15:30 0.03, -75.13 0.06, -75.39 28.94 80
10 09/16/2020 15:00:39 0.03, -75.13 -0.54, -72.43 307.19 80
11 09/17/2020 03:24:43 -0.04, -75.12 -0.58, -77.62 284.51 80
